[[{"header":{"parameterUnit":"m.s-1","parameterCategory":1,"la1":30.2991,"la2":30.254,"lo1":-89.0895,"lo2":-89.0444,"dy":0.0017,"dx":0.0017,"nx":28,"ny":28,"refTime":"2023-10-18T09:00:00:Z","depth":0,"parameterNumber":2,"parameterNumberName":"U-component_of_WINDS"},"data":[0,0,0,0,0,0,0,0,0,0,0,0,0,0,0,0,0,0,0,0,0,0,0,0,0,0,0,0,0,0,0,0,0,0,0,0,0,0,0,0,0,0,0,0,0,0,0,0,0,0,0,0,0,0,0,0,0,0,3.0235,3.0237,0,3.0381,3.0383,3.0384,3.0363,3.036,3.0358,3.0356,3.0505,3.0511,3.0517,0,0,0,0,0,0,0,0,0,0,0,0,0,2.9939,2.9944,3.0235,3.0237,3.0239,3.0381,3.0383,3.0385,3.0363,3.036,3.0357,3.0354,3.0503,3.051,3.0518,0,0,0,0,0,0,0,0,0,0,0,0,0,3.0074,2.9946,3.0235,3.0245,3.0248,3.038,3.0383,3.0385,3.0364,3.036,3.0357,3.0353,3.05,3.0509,3.0519,3.065,0,0,3.0547,3.0551,0,0,0,0,0,0,0,0,3.0067,3.0085,3.0242,3.0245,3.0248,3.035,3.0333,3.0474,3.0365,3.032,3.0356,3.0351,3.0456,3.0469,3.0504,3.0657,3.0664,3.0548,3.0554,3.0558,3.0561,0,0,0,0,0,0,0,3.0057,3.0079,3.0293,3.0244,3.0248,3.0243,3.0258,3.0359,3.0407,3.0323,3.0322,3.034,3.0457,3.0495,3.0508,3.0666,3.0548,3.0556,3.0562,3.0566,3.0933,3.0937,0,0,0,0,0,0,3.0045,3.0071,3.0288,3.0297,3.0146,3.0251,3.0268,3.0321,3.0406,3.0415,3.0343,3.0338,3.0481,3.0497,3.0513,3.0671,3.0558,3.0567,3.0572,3.0929,3.0934,3.0938,0,0,0,0,0,0,3.0039,3.0065,3.0282,3.0184,3.0211,3.026,3.032,3.0326,3.0364,3.042,3.0429,3.0373,3.0479,3.05,3.0616,3.0676,3.0571,3.0579,3.0924,3.093,3.0936,3.099,0,0,0,0,0,0,3.003,3.0063,3.0113,3.0185,3.0217,3.0383,3.0323,3.0331,3.038,3.0376,3.0451,3.046,3.0478,3.0602,3.0625,3.0687,3.0587,3.0919,3.0927,3.0934,3.0983,3.0997,3.101,0,0,0,0,0,3.002,3.0123,3.0116,3.0142,3.0281,3.0387,3.0405,3.0423,3.0385,3.0436,3.0472,3.0458,3.0666,3.0614,3.064,3.0706,3.0915,3.0924,3.0933,3.0977,3.0995,3.1009,0,0,0,0,0,0,3.0056,3.0132,3.0125,3.0255,3.0314,3.0383,3.0448,3.0441,3.0512,3.0505,3.0525,3.0542,3.066,3.0695,3.0635,3.0837,3.0785,3.08,3.081,3.0827,3.084,3.0828,3.0595,0,0,0,0,0,3.0079,3.0159,3.0221,3.0329,3.036,3.0399,3.0446,3.0454,3.0517,3.0542,3.0587,3.0648,3.0727,3.0779,3.0856,3.0989,3.1004,3.1047,3.106,3.107,3.1083,3.1154,3.1174,3.0969,3.0968,3.0968,0,0,3.0128,3.0179,3.0228,3.0338,3.0385,3.0467,3.042,3.0509,3.057,3.0556,3.0668,3.0703,3.0773,3.0898,3.0955,3.093,3.1143,3.1082,3.109,3.1097,3.1166,3.1185,3.1203,3.0975,3.0974,3.0973,0,0,3.0258,3.0305,3.04,3.0448,3.052,3.0545,3.0568,3.0638,3.0661,3.0774,3.0765,3.0837,3.0974,3.1024,3.1067,3.1216,3.1204,3.124,3.1309,3.1378,3.1395,3.1409,3.1461,3.1479,3.1252,3.1252,3.1253,0,3.0309,3.0431,3.0449,3.0539,3.0587,3.0579,3.0674,3.072,3.0814,3.0847,3.0819,3.0989,3.1036,3.1172,3.1208,3.1244,3.127,3.1231,3.1391,3.1405,3.1419,3.1469,3.1488,3.1256,3.1256,3.1255,3.1255,0,3.049,3.0575,3.0643,3.0733,3.0789,3.0882,3.0913,3.0968,3.0972,3.1,3.1115,3.1171,3.1257,3.1291,3.1296,3.1428,3.141,3.1386,3.1334,3.1442,3.1489,3.1508,3.1262,3.126,3.1259,3.1258,0,0,3.0646,3.0745,3.0769,3.0809,3.0889,3.0955,3.1047,3.1132,3.1177,3.1243,3.1319,3.1435,3.1413,3.1463,3.1473,3.1535,3.1648,3.1503,3.1505,3.1527,3.1795,3.1811,3.1833,3.1641,3.1645,3.1648,3.1788,0,3.0782,3.0944,3.0963,3.1107,3.1186,3.1179,3.1259,3.1316,3.1345,3.1416,3.1448,3.1529,3.1495,3.1524,3.1585,3.1621,3.1701,3.1611,3.1712,3.1716,3.1693,3.1857,3.1875,3.2005,3.1807,3.181,3.1812,0,3.0962,3.1032,3.1184,3.1251,3.1285,3.1357,3.1435,3.1504,3.1568,3.1585,3.164,3.1642,3.1737,3.1682,3.1812,3.1751,3.1793,3.1817,3.1823,3.1832,3.1769,3.1869,3.2047,3.2065,3.1842,3.1839,3.1837,0,3.1059,3.1191,3.1299,3.1334,3.1416,3.1466,3.1502,3.1563,3.1613,3.1682,3.1714,3.1794,3.1837,3.1898,3.1922,3.188,3.2051,3.1998,3.2066,3.2066,3.2101,3.2099,3.2287,3.2132,3.2131,3.2131,3.213,0,3.1208,3.1301,3.1343,3.1409,3.1513,3.1534,3.1636,3.167,3.1724,3.1797,3.1796,3.1864,3.1893,3.1965,3.1985,3.2089,3.2109,3.2124,3.2128,3.2124,3.2121,3.2151,3.2142,3.2136,3.2135,3.2134,3.2133,0,3.1333,3.1365,3.1482,3.155,3.1569,3.1642,3.17,3.1764,3.1792,3.1884,3.1907,3.1951,3.2036,3.2067,3.2171,3.2184,3.2304,3.2301,3.2282,3.2283,3.2348,3.2341,3.2561,3.259,3.2417,3.2419,3.242,0,3.1425,3.1496,3.1572,3.162,3.1659,3.1737,3.1787,3.1811,3.1863,3.1942,3.1996,3.2081,3.215,3.2286,3.2328,3.2407,3.2405,3.2476,3.2417,3.241,3.2404,3.2399,3.2406,3.2487,3.2489,3.249,3.2491,0,3.1585,3.1598,3.167,3.1749,3.1809,3.1872,3.1933,3.1973,3.2005,3.2064,3.2151,3.2205,3.231,3.2394,3.2475,3.2513,3.2507,3.251,3.253,3.2525,3.251,3.2518,3.2311,3.2504,3.2503,3.2502,3.2501,3.2501,3.1696,3.1758,3.1821,3.1902,3.195,3.2007,3.207,3.2106,3.2179,3.2267,3.2277,3.237,3.2432,3.2541,3.2582,3.2655,3.2635,3.2664,3.2671,3.2678,3.2682,3.25,3.267,3.267,3.2669,3.2669,3.2669,0,3.1854,3.1895,3.1969,3.2054,3.2118,3.2108,3.2174,3.2228,3.231,3.2369,3.2437,3.2536,3.2617,3.2665,3.2747,3.2796,3.2796,3.2816,3.2812,3.2821,3.2695,3.267,3.2815,3.2815,3.2815,3.2815,3.2815,3.2815,3.1944,3.2049,3.2069,3.2198,3.2237,3.2328,3.2367,3.242,3.2467,3.2578,3.2645,3.2676,3.273,3.2815,3.2889,3.2901,3.2931,3.2953,3.2963,3.2845,3.283,3.2815,3.2791,3.296,3.296,3.3082,3.3083,3.3084]},{"header":{"parameterUnit":"m.s-1","parameterCategory":1,"la1":30.2991,"la2":30.254,"lo1":-89.0895,"lo2":-89.0444,"dy":0.0017,"dx":0.0017,"nx":28,"ny":28,"refTime":"2023-10-18T09:00:00:Z","depth":0,"parameterNumber":3,"parameterNumberName":"V-component_of_WINDS"},"data":[0,0,0,0,0,0,0,0,0,0,0,0,0,0,0,0,0,0,0,0,0,0,0,0,0,0,0,0,0,0,0,0,0,0,0,0,0,0,0,0,0,0,0,0,0,0,0,0,0,0,0,0,0,0,0,0,0,0,1.7607,1.7608,0,1.7727,1.7728,1.7729,1.7721,1.7719,1.7717,1.7716,1.7838,1.7843,1.7848,0,0,0,0,0,0,0,0,0,0,0,0,0,1.7371,1.7376,1.7607,1.7609,1.761,1.7727,1.7728,1.773,1.7721,1.7719,1.7717,1.7715,1.7837,1.7843,1.7849,0,0,0,0,0,0,0,0,0,0,0,0,0,1.7481,1.7377,1.7607,1.762,1.7622,1.7726,1.7728,1.773,1.7722,1.7719,1.7716,1.7714,1.7835,1.7842,1.7849,1.7948,0,0,1.7872,1.7875,0,0,0,0,0,0,0,0,1.7474,1.7489,1.7616,1.7619,1.7622,1.7706,1.769,1.7803,1.7722,1.7684,1.7716,1.7713,1.7797,1.7807,1.7835,1.7954,1.7959,1.7873,1.7877,1.788,1.7882,0,0,0,0,0,0,0,1.7467,1.7484,1.7654,1.7618,1.7622,1.762,1.7632,1.7711,1.7754,1.7687,1.7687,1.7701,1.7798,1.7828,1.7838,1.7961,1.7872,1.7879,1.7884,1.7886,1.8167,1.817,0,0,0,0,0,0,1.7456,1.7478,1.7651,1.7658,1.754,1.7626,1.764,1.7682,1.7753,1.7761,1.7703,1.77,1.7817,1.7829,1.7842,1.7963,1.788,1.7887,1.7891,1.8164,1.8167,1.8171,0,0,0,0,0,0,1.7451,1.7472,1.7646,1.7568,1.759,1.7633,1.768,1.7686,1.7716,1.7765,1.7773,1.7727,1.7815,1.7832,1.7922,1.7967,1.789,1.7897,1.816,1.8165,1.8169,1.8205,0,0,0,0,0,0,1.7445,1.747,1.7508,1.7569,1.7594,1.7724,1.7683,1.769,1.7729,1.7726,1.7789,1.7797,1.7814,1.7911,1.7929,1.7976,1.7903,1.8156,1.8162,1.8168,1.82,1.821,1.8219,0,0,0,0,0,1.7436,1.7514,1.751,1.7531,1.7643,1.7726,1.7741,1.7759,1.7733,1.7771,1.7803,1.7795,1.7959,1.792,1.7941,1.799,1.8154,1.8161,1.8167,1.8196,1.8208,1.8219,0,0,0,0,0,0,1.7458,1.7522,1.7519,1.7618,1.7667,1.7725,1.7774,1.7772,1.7829,1.7824,1.7845,1.7859,1.795,1.7979,1.7934,1.809,1.8053,1.8064,1.8068,1.808,1.8089,1.8081,1.7909,0,0,0,0,0,1.7474,1.7536,1.7589,1.7672,1.7696,1.7731,1.7768,1.7778,1.7829,1.785,1.7888,1.7938,1.8001,1.8042,1.8102,1.8204,1.8218,1.8248,1.8257,1.8265,1.8275,1.8331,1.8345,1.8193,1.8193,1.8193,0,0,1.7508,1.7551,1.7589,1.7677,1.7716,1.778,1.7748,1.7818,1.7866,1.786,1.7948,1.7977,1.8034,1.8131,1.8175,1.8158,1.832,1.8274,1.8279,1.8285,1.8339,1.8354,1.8367,1.8198,1.8197,1.8196,0,0,1.7604,1.7642,1.7716,1.7755,1.7814,1.7837,1.7854,1.7912,1.7932,1.802,1.8017,1.8074,1.8182,1.8223,1.8257,1.8368,1.8363,1.8387,1.8437,1.8491,1.8503,1.8514,1.8554,1.8568,1.8396,1.8396,1.8396,0,1.7639,1.7736,1.7753,1.7824,1.7862,1.786,1.7934,1.7972,1.8048,1.8074,1.8054,1.8189,1.8227,1.8333,1.836,1.8388,1.8409,1.838,1.85,1.8511,1.8521,1.8559,1.8574,1.8399,1.8398,1.8398,1.8398,0,1.7777,1.7844,1.7896,1.7969,1.8014,1.8086,1.8114,1.8157,1.8162,1.8187,1.8276,1.8322,1.8392,1.8417,1.8424,1.8524,1.8512,1.8495,1.8459,1.8538,1.8574,1.8589,1.8402,1.8401,1.8401,1.84,0,0,1.7891,1.7972,1.7991,1.8024,1.8089,1.8141,1.8212,1.828,1.8317,1.8369,1.843,1.852,1.8506,1.8545,1.8556,1.8604,1.8688,1.8581,1.8583,1.86,1.8802,1.8815,1.8832,1.8685,1.8688,1.869,1.8798,0,1.7993,1.812,1.8138,1.825,1.8312,1.8311,1.8373,1.8419,1.8444,1.85,1.8527,1.8591,1.8567,1.859,1.8637,1.8668,1.8729,1.866,1.8742,1.8745,1.8729,1.8851,1.8864,1.8964,1.8812,1.8814,1.8816,0,1.8131,1.8187,1.8305,1.8361,1.8388,1.8444,1.8507,1.8561,1.8613,1.8628,1.8672,1.8676,1.875,1.8709,1.8812,1.8764,1.8798,1.8818,1.8823,1.8832,1.8786,1.8864,1.8996,1.9011,1.8839,1.8837,1.8835,0,1.8203,1.8307,1.8392,1.842,1.8487,1.8527,1.8556,1.8606,1.8646,1.8701,1.8727,1.879,1.8825,1.8874,1.8895,1.8863,1.8996,1.8957,1.9011,1.901,1.904,1.9038,1.918,1.906,1.906,1.9059,1.9059,0,1.8316,1.8389,1.8425,1.8477,1.8559,1.8577,1.8657,1.8686,1.873,1.8787,1.8789,1.8843,1.8868,1.8925,1.8942,1.9024,1.904,1.9054,1.9058,1.9055,1.9053,1.9078,1.9072,1.9063,1.9062,1.9062,1.9061,0,1.8411,1.8438,1.853,1.8586,1.8601,1.8659,1.8707,1.8757,1.8781,1.8854,1.8872,1.8909,1.8977,1.9003,1.9085,1.9097,1.9192,1.919,1.9175,1.9176,1.9228,1.9223,1.9393,1.9416,1.9279,1.9281,1.9282,0,1.8482,1.8538,1.86,1.8638,1.867,1.8732,1.8772,1.8793,1.8835,1.8898,1.8941,1.9008,1.9064,1.9172,1.9207,1.927,1.927,1.9325,1.9279,1.9274,1.9272,1.9269,1.9274,1.9333,1.9335,1.9336,1.9337,0,1.8606,1.8617,1.8675,1.8738,1.8786,1.8837,1.8886,1.8917,1.8945,1.8992,1.9062,1.9104,1.9189,1.9256,1.9321,1.9351,1.9349,1.9351,1.9367,1.9364,1.9354,1.9361,1.9199,1.9347,1.9346,1.9345,1.9345,1.9344,1.8692,1.8742,1.8793,1.8858,1.8897,1.8942,1.8993,1.9022,1.9081,1.9151,1.9159,1.9234,1.9284,1.9371,1.9404,1.9463,1.9448,1.9471,1.9477,1.9483,1.9487,1.9343,1.9475,1.9474,1.9474,1.9474,1.9474,0,1.8817,1.8849,1.8909,1.8977,1.9028,1.9021,1.9075,1.9118,1.9184,1.9231,1.9285,1.9365,1.943,1.9469,1.9534,1.9574,1.9574,1.959,1.9588,1.9595,1.9496,1.9476,1.9589,1.9589,1.9588,1.9588,1.9588,1.9588,1.8888,1.8971,1.8988,1.9091,1.9123,1.9196,1.9228,1.927,1.9308,1.9397,1.9451,1.9476,1.952,1.9588,1.9647,1.9657,1.9681,1.9699,1.9707,1.9614,1.9602,1.9591,1.9572,1.9703,1.9704,1.9802,1.9803,1.9803]}]]